JBU841 KJFK-EIDW

Flight info

Callsign JBU841
Flight time 6h 14m
Altitude 31000
Route GREKI DCT JUDDS DCT MARTN DCT EBONY N567B TUDEP/M079F330 DCT 52N050W 54N040W 55N030W 55N020W DCT DOGAL DCT BEXET/N0451F330 DCT DEVOL DCT OLAPO OLAPO4L
Aircraft A21N/M-SDE3FGHIRWY/LB1

Departure

Time 2026-05-08 16:06
Airport John F. Kennedy International Airport (KJFK)

Arrival

Time 2026-05-08 22:21
Airport Dublin Airport (EIDW)
Time Latitude Longitude Altitude Speed Heading
2026-05-08 15:50 40.64528 -73.77338 15 ft 0 kts 356°
2026-05-08 15:57 40.64525 -73.77338 15 ft 2 kts 357°
2026-05-08 15:58 40.64510 -73.77337 15 ft 2 kts 356°
2026-05-08 15:58 40.64495 -73.77335 15 ft 2 kts 356°
2026-05-08 15:58 40.64480 -73.77339 15 ft 2 kts 33°
2026-05-08 15:58 40.64471 -73.77351 15 ft 0 kts 57°
2026-05-08 15:59 40.64468 -73.77358 15 ft 1 kts 60°
2026-05-08 15:59 40.64467 -73.77359 15 ft 0 kts 60°
2026-05-08 16:01 40.64468 -73.77355 15 ft 1 kts 65°
2026-05-08 16:01 40.64470 -73.77332 15 ft 4 kts 89°
2026-05-08 16:01 40.64472 -73.77284 15 ft 5 kts 89°
2026-05-08 16:01 40.64467 -73.77229 15 ft 6 kts 108°
2026-05-08 16:02 40.64447 -73.77163 15 ft 9 kts 109°
2026-05-08 16:02 40.64430 -73.77079 15 ft 9 kts 103°
2026-05-08 16:02 40.64447 -73.77000 15 ft 10 kts 27°
2026-05-08 16:02 40.64521 -73.76978 15 ft 10 kts 25°
2026-05-08 16:03 40.64586 -73.76927 15 ft 10 kts 31°
2026-05-08 16:03 40.64652 -73.76875 15 ft 11 kts 30°
2026-05-08 16:03 40.64719 -73.76825 15 ft 11 kts 30°
2026-05-08 16:03 40.64787 -73.76771 15 ft 12 kts 30°
2026-05-08 16:04 40.64862 -73.76713 15 ft 12 kts 31°
2026-05-08 16:04 40.64938 -73.76653 15 ft 12 kts 30°
2026-05-08 16:04 40.65013 -73.76593 15 ft 12 kts 31°
2026-05-08 16:04 40.65086 -73.76533 15 ft 12 kts 43°
2026-05-08 16:05 40.65084 -73.76434 15 ft 12 kts 119°
2026-05-08 16:05 40.65031 -73.76359 15 ft 11 kts 181°
2026-05-08 16:05 40.64931 -73.76427 15 ft 37 kts 211°
2026-05-08 16:05 40.64494 -73.76768 15 ft 106 kts 211°
2026-05-08 16:06 40.63681 -73.77402 16 ft 160 kts 212°
2026-05-08 16:06 40.62664 -73.78188 354 ft 172 kts 214°
2026-05-08 16:06 40.61655 -73.78940 1020 ft 168 kts 213°
2026-05-08 16:06 40.60609 -73.79691 1495 ft 178 kts 213°
2026-05-08 16:07 40.59499 -73.80465 1909 ft 185 kts 210°
2026-05-08 16:07 40.58179 -73.80787 2126 ft 207 kts 176°
2026-05-08 16:07 40.56833 -73.79984 2329 ft 228 kts 140°
2026-05-08 16:07 40.55947 -73.78198 2527 ft 246 kts 105°
2026-05-08 16:08 40.55867 -73.75918 2784 ft 257 kts 73°
2026-05-08 16:08 40.56661 -73.73806 3067 ft 264 kts 46°
2026-05-08 16:08 40.57970 -73.72036 3482 ft 272 kts 39°
2026-05-08 16:08 40.59376 -73.70365 4059 ft 275 kts 37°
2026-05-08 16:09 40.60802 -73.68698 4643 ft 277 kts 37°
2026-05-08 16:09 40.61760 -73.67574 5021 ft 279 kts 37°
2026-05-08 16:09 40.63702 -73.65284 5786 ft 283 kts 37°
2026-05-08 16:09 40.65167 -73.63535 6361 ft 285 kts 37°
2026-05-08 16:10 40.66624 -73.61771 6932 ft 288 kts 37°
2026-05-08 16:10 40.68090 -73.59982 7506 ft 290 kts 37°
2026-05-08 16:10 40.69561 -73.58173 8066 ft 292 kts 37°
2026-05-08 16:10 40.71035 -73.56354 8599 ft 294 kts 37°
2026-05-08 16:11 40.72525 -73.54506 9154 ft 295 kts 37°
2026-05-08 16:11 40.74027 -73.52626 9690 ft 297 kts 37°
2026-05-08 16:11 40.75525 -73.50742 10193 ft 300 kts 37°
2026-05-08 16:11 40.77044 -73.48827 10457 ft 311 kts 37°
2026-05-08 16:12 40.78650 -73.46811 10688 ft 323 kts 37°
2026-05-08 16:12 40.80305 -73.44747 10913 ft 334 kts 37°
2026-05-08 16:12 40.82018 -73.42613 11138 ft 346 kts 37°
2026-05-08 16:12 40.83940 -73.40688 11318 ft 346 kts 18°
2026-05-08 16:13 40.86235 -73.39921 11541 ft 341 kts 359°
2026-05-08 16:13 40.88646 -73.39728 11758 ft 350 kts 356°
2026-05-08 16:13 40.91099 -73.39564 12120 ft 356 kts 357°
2026-05-08 16:13 40.93557 -73.39337 12594 ft 358 kts 358°
2026-05-08 16:14 40.96067 -73.39053 13038 ft 361 kts 358°
2026-05-08 16:14 40.98565 -73.38731 13452 ft 364 kts 359°
2026-05-08 16:14 41.01080 -73.38387 13874 ft 367 kts 359°
2026-05-08 16:14 41.03625 -73.38025 14296 ft 370 kts 359°
2026-05-08 16:15 41.06205 -73.37650 14686 ft 372 kts 359°
2026-05-08 16:15 41.08765 -73.37271 15102 ft 374 kts 359°
2026-05-08 16:15 41.11366 -73.36886 15472 ft 377 kts 359°
2026-05-08 16:15 41.14001 -73.36494 15849 ft 379 kts 358°
2026-05-08 16:16 41.16605 -73.36106 16239 ft 381 kts 358°
2026-05-08 16:16 41.19254 -73.35709 16628 ft 382 kts 358°
2026-05-08 16:16 41.21884 -73.35314 16980 ft 384 kts 358°
2026-05-08 16:16 41.24577 -73.34913 17323 ft 387 kts 359°
2026-05-08 16:17 41.27237 -73.34514 17606 ft 390 kts 358°
2026-05-08 16:17 41.29036 -73.34245 17817 ft 391 kts 358°
2026-05-08 16:17 41.32662 -73.33699 18226 ft 394 kts 358°
2026-05-08 16:17 41.35373 -73.33291 18532 ft 396 kts 358°
2026-05-08 16:18 41.38138 -73.32874 18843 ft 397 kts 358°
2026-05-08 16:18 41.40885 -73.32460 19126 ft 400 kts 358°
2026-05-08 16:18 41.43654 -73.32043 19430 ft 401 kts 358°
2026-05-08 16:18 41.46419 -73.31303 19682 ft 416 kts
2026-05-08 16:19 41.49103 -73.29620 19945 ft 434 kts 24°
2026-05-08 16:19 41.51468 -73.27049 20228 ft 448 kts 36°
2026-05-08 16:19 41.53659 -73.24123 20485 ft 452 kts 38°
2026-05-08 16:19 41.55859 -73.21092 20706 ft 455 kts 38°
2026-05-08 16:20 41.58078 -73.18066 20926 ft 457 kts 38°
2026-05-08 16:20 41.60311 -73.15061 21193 ft 457 kts 36°
2026-05-08 16:20 41.62794 -73.12554 21374 ft 439 kts 18°
2026-05-08 16:20 41.65606 -73.11404 21619 ft 414 kts 358°
2026-05-08 16:21 41.68386 -73.11465 21893 ft 397 kts 343°
2026-05-08 16:21 41.71145 -73.11979 22119 ft 399 kts 343°
2026-05-08 16:21 41.73891 -73.12498 22322 ft 401 kts 343°
2026-05-08 16:21 41.76643 -73.13000 22570 ft 402 kts 342°
2026-05-08 16:22 41.79436 -73.13496 22830 ft 403 kts 343°
2026-05-08 16:22 41.81295 -73.13822 23002 ft 403 kts 342°
2026-05-08 16:22 41.84982 -73.14462 23254 ft 405 kts 343°
2026-05-08 16:22 41.87778 -73.14946 23461 ft 406 kts 343°
2026-05-08 16:23 41.90609 -73.15428 23661 ft 408 kts 342°
2026-05-08 16:23 41.93396 -73.15907 23817 ft 410 kts 342°
2026-05-08 16:23 41.96256 -73.16393 24024 ft 411 kts 342°
2026-05-08 16:23 41.99065 -73.16876 24196 ft 412 kts 342°
2026-05-08 16:24 42.01942 -73.17371 24385 ft 413 kts 342°
2026-05-08 16:24 42.04757 -73.17851 24579 ft 414 kts 342°
2026-05-08 16:24 42.07639 -73.18344 24827 ft 413 kts 342°
2026-05-08 16:24 42.10498 -73.18835 25011 ft 414 kts 342°
2026-05-08 16:25 42.13353 -73.19325 25151 ft 416 kts 342°
2026-05-08 16:25 42.16226 -73.19821 25300 ft 418 kts 342°
2026-05-08 16:25 42.19110 -73.20318 25484 ft 418 kts 343°
2026-05-08 16:25 42.21980 -73.20812 25684 ft 418 kts 343°
2026-05-08 16:26 42.24897 -73.21311 25835 ft 419 kts 343°
2026-05-08 16:26 42.27760 -73.21805 25942 ft 421 kts 343°
2026-05-08 16:26 42.30681 -73.22310 26175 ft 420 kts 343°
2026-05-08 16:26 42.33569 -73.22804 26455 ft 418 kts 343°
2026-05-08 16:27 42.36466 -73.23303 26629 ft 418 kts 342°
2026-05-08 16:27 42.39340 -73.23802 26784 ft 418 kts 343°
2026-05-08 16:27 42.42218 -73.24300 26994 ft 417 kts 343°
2026-05-08 16:27 42.45092 -73.24799 27191 ft 417 kts 343°
2026-05-08 16:28 42.47951 -73.25294 27397 ft 416 kts 343°
2026-05-08 16:28 42.50813 -73.25792 27597 ft 415 kts 343°
2026-05-08 16:28 42.53738 -73.25912 27687 ft 434 kts 356°
2026-05-08 16:28 42.56740 -73.24831 27785 ft 459 kts 14°
2026-05-08 16:29 42.59517 -73.22474 27945 ft 483 kts 32°
2026-05-08 16:29 42.61726 -73.18961 28099 ft 503 kts 51°
2026-05-08 16:29 42.63465 -73.14874 28327 ft 505 kts 54°
2026-05-08 16:29 42.65166 -73.10675 28489 ft 506 kts 54°
2026-05-08 16:30 42.66845 -73.06526 28662 ft 505 kts 54°
2026-05-08 16:30 42.68528 -73.02398 28843 ft 504 kts 54°
2026-05-08 16:30 42.70258 -72.98196 29012 ft 504 kts 53°
2026-05-08 16:30 42.71975 -72.94051 29188 ft 504 kts 53°
2026-05-08 16:31 42.73680 -72.89950 29312 ft 505 kts 53°
2026-05-08 16:31 42.75415 -72.85779 29405 ft 507 kts 53°
2026-05-08 16:31 42.77135 -72.81637 29561 ft 507 kts 53°
2026-05-08 16:31 42.78866 -72.77468 29722 ft 507 kts 53°
2026-05-08 16:32 42.80595 -72.73295 29885 ft 507 kts 53°
2026-05-08 16:32 42.82328 -72.69108 30021 ft 507 kts 53°
2026-05-08 16:32 42.84063 -72.64914 30137 ft 508 kts 53°
2026-05-08 16:32 42.85770 -72.60778 30213 ft 509 kts 53°
2026-05-08 16:33 42.87503 -72.56574 30339 ft 510 kts 53°
2026-05-08 16:33 42.89244 -72.52348 30445 ft 510 kts 53°
2026-05-08 16:33 42.92703 -72.43925 30665 ft 510 kts 54°
2026-05-08 16:34 42.96146 -72.35519 30828 ft 512 kts 54°
2026-05-08 16:34 42.99628 -72.26991 30849 ft 513 kts 55°
2026-05-08 16:35 43.03069 -72.18534 30857 ft 511 kts 55°
2026-05-08 16:35 43.06514 -72.10040 30858 ft 511 kts 55°
2026-05-08 16:36 43.09933 -72.01598 30844 ft 512 kts 56°
2026-05-08 16:36 43.13372 -71.93074 30836 ft 510 kts 56°
2026-05-08 16:37 43.16787 -71.84580 30838 ft 509 kts 56°
2026-05-08 16:37 43.20192 -71.76100 30836 ft 509 kts 56°
2026-05-08 16:38 43.23569 -71.67654 30841 ft 507 kts 56°
2026-05-08 16:38 43.26928 -71.59228 30844 ft 507 kts 56°
2026-05-08 16:39 43.30310 -71.50716 30845 ft 507 kts 56°
2026-05-08 16:39 43.33644 -71.42307 30845 ft 505 kts 56°
2026-05-08 16:40 43.37000 -71.33820 30837 ft 504 kts 57°
2026-05-08 16:40 43.40316 -71.25407 30835 ft 505 kts 58°
2026-05-08 16:41 43.43647 -71.16926 30832 ft 506 kts 58°
2026-05-08 16:42 43.48629 -71.04195 30827 ft 503 kts 58°
2026-05-08 16:42 43.51922 -70.95751 30819 ft 502 kts 58°
2026-05-08 16:43 43.55216 -70.87282 30821 ft 502 kts 58°
2026-05-08 16:43 43.58483 -70.78846 30827 ft 503 kts 58°
2026-05-08 16:44 43.61780 -70.70319 30832 ft 502 kts 58°
2026-05-08 16:44 43.65037 -70.61870 30832 ft 501 kts 58°
2026-05-08 16:45 43.68298 -70.53379 30834 ft 501 kts 58°
2026-05-08 16:45 43.71529 -70.44942 30836 ft 500 kts 58°
2026-05-08 16:46 43.74778 -70.36437 30834 ft 499 kts 59°
2026-05-08 16:46 43.77993 -70.27993 30833 ft 499 kts 59°
2026-05-08 16:47 43.81212 -70.19510 30833 ft 499 kts 59°
2026-05-08 16:47 43.84426 -70.11014 30836 ft 497 kts 60°
2026-05-08 16:48 43.87608 -70.02582 30837 ft 496 kts 60°
2026-05-08 16:48 43.90792 -69.94117 30842 ft 496 kts 60°
2026-05-08 16:49 43.93966 -69.85660 30833 ft 495 kts 60°
2026-05-08 16:49 43.97116 -69.77227 30839 ft 495 kts 60°
2026-05-08 16:50 44.00268 -69.68773 30838 ft 494 kts 60°
2026-05-08 16:50 44.03422 -69.60283 30832 ft 495 kts 60°
2026-05-08 16:51 44.06551 -69.51838 30832 ft 494 kts 60°
2026-05-08 16:51 44.09690 -69.43335 30821 ft 495 kts 60°
2026-05-08 16:52 44.12809 -69.34869 30823 ft 495 kts 61°
2026-05-08 16:52 44.15942 -69.26336 30825 ft 495 kts 61°
2026-05-08 16:53 44.20599 -69.13597 30820 ft 494 kts 61°
2026-05-08 16:53 44.23707 -69.05064 30817 ft 494 kts 62°
2026-05-08 16:54 44.26812 -68.96511 30821 ft 494 kts 62°
2026-05-08 16:54 44.29892 -68.88004 30806 ft 493 kts 62°
2026-05-08 16:55 44.32954 -68.79519 30790 ft 494 kts 62°
2026-05-08 16:55 44.36017 -68.71007 30791 ft 493 kts 62°
2026-05-08 16:56 44.39102 -68.62405 30794 ft 494 kts 62°
2026-05-08 16:56 44.42147 -68.53883 30796 ft 494 kts 62°
2026-05-08 16:57 44.45208 -68.45296 30798 ft 495 kts 62°
2026-05-08 16:57 44.48272 -68.36671 30796 ft 496 kts 62°
2026-05-08 16:58 44.51331 -68.28034 30792 ft 496 kts 63°
2026-05-08 16:58 44.54377 -68.19407 30795 ft 496 kts 63°
2026-05-08 16:59 44.57415 -68.10773 30782 ft 496 kts 63°
2026-05-08 16:59 44.60464 -68.02080 30793 ft 496 kts 63°
2026-05-08 17:00 44.63483 -67.93446 30776 ft 496 kts 63°
2026-05-08 17:00 44.66517 -67.84740 30770 ft 497 kts 63°
2026-05-08 17:01 44.69541 -67.76033 30783 ft 497 kts 63°
2026-05-08 17:01 44.72550 -67.67341 30766 ft 498 kts 63°
2026-05-08 17:02 44.75569 -67.58598 30757 ft 498 kts 63°
2026-05-08 17:02 44.78577 -67.49850 30761 ft 499 kts 63°
2026-05-08 17:03 44.81582 -67.41084 30758 ft 499 kts 63°
2026-05-08 17:03 44.84575 -67.32322 30748 ft 499 kts 64°
2026-05-08 17:04 44.87573 -67.23530 30752 ft 498 kts 63°
2026-05-08 17:04 44.90964 -67.15026 30764 ft 497 kts 56°
2026-05-08 17:05 44.95002 -67.07209 30796 ft 496 kts 50°
2026-05-08 17:05 44.99345 -66.99640 30817 ft 497 kts 50°
2026-05-08 17:06 45.03690 -66.92068 30860 ft 497 kts 50°
2026-05-08 17:06 45.08017 -66.84477 30899 ft 498 kts 50°
2026-05-08 17:07 45.12338 -66.76852 30944 ft 497 kts 50°
2026-05-08 17:07 45.16620 -66.69272 30985 ft 497 kts 50°
2026-05-08 17:08 45.20925 -66.61631 31026 ft 496 kts 51°
2026-05-08 17:08 45.25219 -66.53985 31063 ft 497 kts 51°
2026-05-08 17:09 45.29517 -66.46315 31104 ft 497 kts 51°
2026-05-08 17:09 45.33792 -66.38661 31150 ft 497 kts 51°
2026-05-08 17:10 45.38077 -66.30969 31184 ft 497 kts 52°
2026-05-08 17:10 45.42341 -66.23296 31232 ft 497 kts 52°
2026-05-08 17:11 45.46609 -66.15595 31266 ft 497 kts 52°
2026-05-08 17:11 45.50887 -66.07852 31306 ft 498 kts 52°
2026-05-08 17:12 45.55146 -66.00124 31349 ft 498 kts 52°
2026-05-08 17:12 45.59415 -65.92357 31389 ft 498 kts 52°
2026-05-08 17:13 45.63676 -65.84583 31435 ft 499 kts 52°
2026-05-08 17:13 45.67954 -65.76756 31473 ft 500 kts 53°
2026-05-08 17:14 45.72190 -65.68980 31519 ft 500 kts 53°
2026-05-08 17:14 45.76462 -65.61124 31561 ft 500 kts 53°
2026-05-08 17:15 45.80700 -65.53303 31602 ft 500 kts 53°
2026-05-08 17:15 45.84956 -65.45434 31643 ft 501 kts 53°
2026-05-08 17:16 45.89241 -65.37483 31685 ft 502 kts 53°
2026-05-08 17:16 45.93475 -65.29607 31727 ft 501 kts 54°
2026-05-08 17:17 45.97729 -65.21668 31767 ft 501 kts 54°
2026-05-08 17:17 46.01964 -65.13744 31809 ft 501 kts 54°
2026-05-08 17:18 46.06182 -65.05831 31852 ft 502 kts 55°
2026-05-08 17:18 46.10437 -64.97819 31896 ft 502 kts 55°
2026-05-08 17:19 46.14664 -64.89845 31938 ft 502 kts 55°
2026-05-08 17:19 46.18877 -64.81873 31984 ft 504 kts 55°
2026-05-08 17:20 46.23134 -64.73795 32029 ft 505 kts 55°
2026-05-08 17:20 46.27352 -64.65768 32075 ft 506 kts 55°
2026-05-08 17:21 46.31588 -64.57684 32123 ft 507 kts 56°
2026-05-08 17:21 46.35842 -64.49535 32168 ft 507 kts 56°
2026-05-08 17:22 46.40054 -64.41452 32215 ft 507 kts 56°
2026-05-08 17:22 46.44300 -64.33276 32260 ft 507 kts 57°
2026-05-08 17:23 46.48528 -64.25112 32308 ft 508 kts 57°
2026-05-08 17:23 46.52742 -64.16949 32355 ft 508 kts 57°
2026-05-08 17:24 46.56966 -64.08750 32400 ft 508 kts 57°
2026-05-08 17:24 46.61171 -64.00558 32436 ft 509 kts 57°
2026-05-08 17:25 46.65398 -63.92300 32488 ft 509 kts 58°
2026-05-08 17:25 46.69597 -63.84066 32531 ft 510 kts 58°
2026-05-08 17:26 46.73797 -63.75814 32586 ft 509 kts 58°
2026-05-08 17:26 46.78008 -63.67509 32632 ft 509 kts 58°
2026-05-08 17:27 46.82195 -63.59230 32685 ft 510 kts 58°
2026-05-08 17:27 46.86372 -63.50948 32705 ft 509 kts 58°
2026-05-08 17:28 46.90563 -63.42611 32706 ft 509 kts 58°
2026-05-08 17:28 46.94729 -63.34302 32710 ft 509 kts 59°
2026-05-08 17:29 46.98900 -63.25959 32711 ft 508 kts 59°
2026-05-08 17:29 47.03061 -63.17604 32711 ft 509 kts 59°
2026-05-08 17:30 47.07207 -63.09255 32710 ft 509 kts 59°
2026-05-08 17:30 47.11345 -63.00901 32718 ft 509 kts 59°
2026-05-08 17:31 47.15505 -62.92480 32736 ft 510 kts 59°
2026-05-08 17:31 47.19643 -62.84075 32726 ft 509 kts 60°
2026-05-08 17:32 47.23772 -62.75657 32724 ft 509 kts 60°
2026-05-08 17:32 47.27911 -62.67195 32727 ft 510 kts 60°
2026-05-08 17:33 47.32021 -62.58767 32730 ft 512 kts 60°
2026-05-08 17:33 47.36149 -62.50277 32738 ft 510 kts 61°
2026-05-08 17:34 47.40268 -62.41778 32723 ft 513 kts 61°
2026-05-08 17:34 47.44400 -62.33235 32733 ft 511 kts 62°
2026-05-08 17:35 47.48512 -62.24697 32722 ft 512 kts 62°
2026-05-08 17:35 47.52618 -62.16148 32713 ft 511 kts 63°
2026-05-08 17:36 47.56731 -62.07551 32719 ft 512 kts 63°
2026-05-08 17:36 47.60823 -61.98974 32713 ft 513 kts 63°
2026-05-08 17:37 47.64918 -61.90373 32714 ft 512 kts 63°
2026-05-08 17:37 47.69011 -61.81736 32706 ft 512 kts 63°
2026-05-08 17:38 47.73082 -61.73128 32722 ft 512 kts 63°
2026-05-08 17:38 47.77153 -61.64494 32705 ft 512 kts 63°
2026-05-08 17:39 47.81207 -61.55860 32696 ft 513 kts 63°
2026-05-08 17:39 47.85276 -61.47168 32702 ft 513 kts 63°
2026-05-08 17:40 47.89327 -61.38488 32700 ft 514 kts 64°
2026-05-08 17:40 47.93394 -61.29764 32702 ft 511 kts 65°
2026-05-08 17:41 47.97442 -61.21027 32709 ft 513 kts 65°
2026-05-08 17:41 48.01483 -61.12278 32707 ft 514 kts 65°
2026-05-08 17:42 48.05499 -61.03577 32711 ft 513 kts 65°
2026-05-08 17:42 48.09527 -60.94807 32708 ft 513 kts 65°
2026-05-08 17:43 48.13532 -60.86063 32705 ft 512 kts 66°
2026-05-08 17:43 48.17522 -60.77313 32699 ft 513 kts 66°
2026-05-08 17:44 48.21541 -60.68483 32691 ft 514 kts 66°
2026-05-08 17:44 48.25547 -60.59650 32688 ft 513 kts 66°
2026-05-08 17:45 48.29537 -60.50835 32686 ft 512 kts 66°
2026-05-08 17:45 48.33504 -60.42018 32690 ft 514 kts 67°
2026-05-08 17:46 48.37484 -60.33176 32691 ft 510 kts 68°
2026-05-08 17:46 48.41440 -60.24328 32691 ft 511 kts 68°
2026-05-08 17:47 48.45363 -60.15528 32701 ft 512 kts 69°
2026-05-08 17:47 48.48669 -60.08108 32700 ft 510 kts 69°
2026-05-08 17:48 48.53256 -59.97758 32696 ft 509 kts 69°
2026-05-08 17:48 48.57159 -59.88914 32694 ft 512 kts 69°
2026-05-08 17:49 48.61089 -59.79988 32695 ft 509 kts 69°
2026-05-08 17:49 48.65004 -59.71064 32687 ft 512 kts 69°
2026-05-08 17:50 48.68916 -59.62119 32691 ft 511 kts 69°
2026-05-08 17:50 48.72828 -59.53149 32693 ft 510 kts 70°
2026-05-08 17:51 48.76709 -59.44219 32685 ft 510 kts 69°
2026-05-08 17:51 48.80605 -59.35209 32683 ft 513 kts 70°
2026-05-08 17:52 48.84498 -59.26192 32690 ft 513 kts 70°
2026-05-08 17:53 48.90327 -59.12636 32690 ft 512 kts 71°
2026-05-08 17:53 48.94176 -59.03634 32687 ft 513 kts 70°
2026-05-08 17:54 48.98036 -58.94609 32680 ft 509 kts 71°
2026-05-08 17:54 49.01894 -58.85497 32673 ft 514 kts 70°
2026-05-08 17:55 49.05762 -58.76370 32668 ft 514 kts 70°
2026-05-08 17:55 49.09615 -58.67256 32665 ft 515 kts 70°
2026-05-08 17:56 49.13466 -58.58118 32670 ft 513 kts 70°
2026-05-08 17:56 49.17310 -58.48947 32667 ft 513 kts 70°
2026-05-08 17:57 49.21130 -58.39808 32666 ft 514 kts 70°
2026-05-08 17:57 49.24958 -58.30610 32665 ft 512 kts 71°
2026-05-08 17:58 49.28773 -58.21417 32662 ft 514 kts 71°
2026-05-08 17:58 49.32598 -58.12157 32647 ft 517 kts 71°
2026-05-08 17:59 49.36410 -58.02924 32626 ft 515 kts 70°
2026-05-08 17:59 49.40227 -57.93615 32626 ft 519 kts 70°
2026-05-08 18:00 49.43422 -57.85831 32632 ft 515 kts 70°
2026-05-08 18:00 49.49760 -57.70262 32630 ft 520 kts 69°
2026-05-08 18:01 49.53548 -57.60950 32624 ft 515 kts 70°
2026-05-08 18:01 49.57338 -57.51566 32629 ft 517 kts 70°
2026-05-08 18:02 49.60472 -57.43785 32626 ft 516 kts 69°
2026-05-08 18:02 49.64897 -57.32773 32636 ft 517 kts 70°
2026-05-08 18:03 49.68645 -57.23405 32645 ft 516 kts 70°
2026-05-08 18:03 49.72403 -57.13967 32652 ft 516 kts 70°
2026-05-08 18:04 49.76135 -57.04562 32651 ft 518 kts 70°
2026-05-08 18:04 49.79872 -56.95111 32646 ft 518 kts 70°
2026-05-08 18:05 49.83607 -56.85641 32647 ft 519 kts 70°
2026-05-08 18:05 49.87340 -56.76154 32651 ft 516 kts 69°
2026-05-08 18:06 49.91069 -56.66612 32653 ft 520 kts 70°
2026-05-08 18:06 49.94804 -56.57046 32648 ft 518 kts 69°
2026-05-08 18:07 49.98497 -56.47542 32650 ft 517 kts 69°
2026-05-08 18:07 50.02207 -56.37957 32657 ft 519 kts 69°
2026-05-08 18:08 50.05921 -56.28326 32661 ft 519 kts 70°
2026-05-08 18:08 50.09611 -56.18737 32665 ft 516 kts 70°
2026-05-08 18:09 50.13280 -56.09151 32668 ft 518 kts 70°
2026-05-08 18:09 50.16940 -55.99554 32675 ft 518 kts 70°
2026-05-08 18:10 50.20599 -55.89925 32676 ft 519 kts 70°
2026-05-08 18:10 50.24257 -55.80271 32678 ft 518 kts 69°
2026-05-08 18:11 50.27914 -55.70560 32682 ft 522 kts 69°
2026-05-08 18:11 50.31607 -55.60741 32682 ft 521 kts 69°
2026-05-08 18:12 50.35241 -55.51052 32682 ft 518 kts 69°
2026-05-08 18:12 50.38878 -55.41297 32679 ft 520 kts 69°
2026-05-08 18:13 50.42509 -55.31515 32680 ft 522 kts 69°
2026-05-08 18:13 50.46140 -55.21730 32674 ft 518 kts 69°
2026-05-08 18:14 50.49737 -55.11966 32670 ft 520 kts 69°
2026-05-08 18:14 50.53333 -55.02179 32672 ft 521 kts 70°
2026-05-08 18:15 50.56917 -54.92387 32674 ft 518 kts 69°
2026-05-08 18:15 50.60513 -54.82516 32679 ft 521 kts 69°
2026-05-08 18:16 50.64077 -54.72701 32678 ft 520 kts 69°
2026-05-08 18:16 50.67641 -54.62860 32683 ft 520 kts 69°
2026-05-08 18:17 50.71196 -54.52985 32684 ft 520 kts 69°
2026-05-08 18:17 50.74743 -54.43111 32681 ft 518 kts 69°
2026-05-08 18:18 50.78279 -54.33215 32684 ft 520 kts 69°
2026-05-08 18:18 50.81816 -54.23286 32681 ft 518 kts 69°
2026-05-08 18:19 50.85331 -54.13377 32680 ft 521 kts 69°
2026-05-08 18:19 50.88835 -54.03478 32680 ft 519 kts 69°
2026-05-08 18:20 50.92347 -53.93495 32681 ft 519 kts 68°
2026-05-08 18:20 50.95852 -53.83516 32685 ft 517 kts 69°
2026-05-08 18:21 50.99320 -53.73592 32686 ft 516 kts 69°
2026-05-08 18:21 51.02782 -53.63633 32690 ft 518 kts 68°
2026-05-08 18:22 51.06251 -53.53624 32693 ft 518 kts 68°
2026-05-08 18:22 51.09689 -53.43675 32691 ft 516 kts 68°
2026-05-08 18:23 51.13128 -53.33662 32686 ft 517 kts 69°
2026-05-08 18:23 51.16523 -53.23632 32684 ft 516 kts 71°
2026-05-08 18:24 51.19478 -53.13338 32685 ft 512 kts 75°
2026-05-08 18:24 51.22297 -53.02978 32686 ft 511 kts 74°
2026-05-08 18:25 51.25090 -52.92688 32687 ft 511 kts 75°
2026-05-08 18:25 51.27907 -52.82317 32692 ft 511 kts 74°
2026-05-08 18:26 51.30715 -52.71943 32697 ft 511 kts 74°
2026-05-08 18:26 51.33546 -52.61461 32705 ft 511 kts 74°
2026-05-08 18:27 51.35875 -52.52786 32710 ft 512 kts 74°
2026-05-08 18:27 51.39118 -52.40667 32715 ft 511 kts 74°
2026-05-08 18:28 51.41898 -52.30215 32719 ft 511 kts 75°
2026-05-08 18:28 51.44659 -52.19795 32718 ft 510 kts 75°
2026-05-08 18:29 51.47416 -52.09334 32722 ft 510 kts 74°
2026-05-08 18:29 51.50149 -51.98929 32725 ft 509 kts 74°
2026-05-08 18:30 51.52888 -51.88451 32725 ft 510 kts 74°
2026-05-08 18:30 51.55596 -51.78045 32729 ft 508 kts 74°
2026-05-08 18:31 51.58307 -51.67573 32732 ft 508 kts 73°
2026-05-08 18:31 51.61000 -51.57114 32733 ft 509 kts 73°
2026-05-08 18:32 51.63694 -51.46617 32740 ft 508 kts 73°
2026-05-08 18:32 51.66358 -51.36174 32745 ft 509 kts 73°
2026-05-08 18:33 51.69025 -51.25683 32756 ft 508 kts 74°
2026-05-08 18:33 51.71677 -51.15203 32759 ft 507 kts 74°
2026-05-08 18:34 51.74330 -51.04662 32762 ft 506 kts 74°
2026-05-08 18:34 51.76946 -50.94218 32769 ft 506 kts 74°
2026-05-08 18:35 51.79570 -50.83698 32768 ft 506 kts 73°
2026-05-08 18:35 51.82166 -50.73238 32771 ft 505 kts 74°
2026-05-08 18:36 51.84771 -50.62677 32770 ft 506 kts 73°
2026-05-08 18:36 51.87358 -50.52159 32775 ft 506 kts 73°
2026-05-08 18:37 51.89928 -50.41654 32781 ft 506 kts 73°
2026-05-08 18:37 51.92507 -50.31062 32774 ft 507 kts 74°
2026-05-08 18:38 51.95075 -50.20463 32778 ft 506 kts 74°
2026-05-08 18:38 51.97620 -50.09901 32779 ft 506 kts 73°
2026-05-08 18:39 52.00153 -49.99340 32785 ft 505 kts 73°
2026-05-08 18:39 52.02801 -49.88761 32791 ft 506 kts 72°
2026-05-08 18:40 52.05461 -49.78255 32791 ft 507 kts 72°
2026-05-08 18:40 52.08111 -49.67697 32796 ft 506 kts 72°
2026-05-08 18:41 52.10749 -49.57107 32797 ft 506 kts 72°
2026-05-08 18:41 52.13355 -49.46571 32801 ft 507 kts 72°
2026-05-08 18:42 52.15969 -49.35963 32809 ft 507 kts 72°
2026-05-08 18:42 52.18573 -49.25351 32808 ft 507 kts 73°
2026-05-08 18:43 52.21178 -49.14671 32818 ft 507 kts 73°
2026-05-08 18:43 52.23760 -49.04039 32823 ft 507 kts 72°
2026-05-08 18:44 52.26320 -48.93445 32825 ft 507 kts 72°
2026-05-08 18:44 52.28884 -48.82769 32830 ft 507 kts 72°
2026-05-08 18:45 52.31438 -48.72102 32833 ft 507 kts 72°
2026-05-08 18:45 52.33995 -48.61355 32837 ft 506 kts 72°
2026-05-08 18:46 52.36513 -48.50722 32842 ft 506 kts 72°
2026-05-08 18:46 52.39037 -48.40010 32847 ft 506 kts 72°
2026-05-08 18:47 52.41558 -48.29279 32847 ft 506 kts 72°
2026-05-08 18:47 52.44064 -48.18535 32852 ft 506 kts 72°
2026-05-08 18:48 52.46540 -48.07870 32859 ft 506 kts 72°
2026-05-08 18:48 52.49030 -47.97110 32865 ft 505 kts 72°
2026-05-08 18:49 52.51494 -47.86371 32877 ft 505 kts 72°
2026-05-08 18:49 52.53954 -47.75623 32884 ft 505 kts 72°
2026-05-08 18:50 52.56399 -47.64884 32890 ft 504 kts 72°
2026-05-08 18:50 52.58429 -47.55920 32893 ft 504 kts 72°
2026-05-08 18:51 52.61262 -47.43353 32903 ft 503 kts 71°
2026-05-08 18:51 52.63676 -47.32565 32908 ft 502 kts 73°
2026-05-08 18:52 52.66060 -47.21880 32904 ft 501 kts 72°
2026-05-08 18:52 52.68441 -47.11135 32917 ft 500 kts 72°
2026-05-08 18:53 52.70811 -47.00391 32921 ft 500 kts 72°
2026-05-08 18:53 52.73159 -46.89716 32927 ft 500 kts 72°
2026-05-08 18:54 52.75517 -46.78913 32929 ft 499 kts 72°
2026-05-08 18:54 52.77840 -46.68209 32946 ft 499 kts 72°
2026-05-08 18:55 52.81327 -46.52058 32951 ft 498 kts 72°
2026-05-08 18:56 52.83621 -46.41367 32959 ft 497 kts 72°
2026-05-08 18:56 52.85918 -46.30599 32967 ft 496 kts 72°
2026-05-08 18:57 52.88194 -46.19869 32972 ft 496 kts 72°
2026-05-08 18:57 52.90451 -46.09170 32982 ft 495 kts 72°
2026-05-08 18:58 52.92706 -45.98429 32995 ft 494 kts 72°
2026-05-08 18:58 52.94948 -45.87692 33003 ft 494 kts 72°
2026-05-08 18:59 52.97176 -45.76969 33002 ft 495 kts 72°
2026-05-08 18:59 52.99389 -45.66248 33010 ft 495 kts 72°
2026-05-08 19:00 53.01226 -45.57312 33011 ft 495 kts 72°
2026-05-08 19:00 53.03797 -45.44733 33022 ft 494 kts 71°
2026-05-08 19:01 53.05990 -45.33945 33025 ft 494 kts 72°
2026-05-08 19:01 53.08170 -45.23163 33029 ft 494 kts 72°
2026-05-08 19:02 53.10344 -45.12345 33040 ft 492 kts 72°
2026-05-08 19:02 53.12490 -45.01609 33054 ft 492 kts 72°
2026-05-08 19:03 53.14640 -44.90796 33063 ft 493 kts 72°
2026-05-08 19:03 53.16771 -44.80018 33067 ft 493 kts 72°
2026-05-08 19:04 53.18900 -44.69183 33073 ft 493 kts 72°
2026-05-08 19:04 53.21017 -44.58364 33080 ft 493 kts 72°
2026-05-08 19:05 53.23118 -44.47555 33088 ft 493 kts 71°
2026-05-08 19:05 53.25218 -44.36689 33094 ft 493 kts 71°
2026-05-08 19:06 53.27298 -44.25862 33100 ft 493 kts 72°
2026-05-08 19:06 53.29379 -44.14980 33109 ft 492 kts 72°
2026-05-08 19:07 53.31440 -44.04132 33119 ft 491 kts 72°
2026-05-08 19:07 53.33478 -43.93343 33121 ft 491 kts 72°
2026-05-08 19:08 53.35517 -43.82486 33128 ft 491 kts 71°
2026-05-08 19:08 53.37548 -43.71610 33130 ft 491 kts 71°
2026-05-08 19:09 53.39567 -43.60737 33141 ft 491 kts 71°
2026-05-08 19:09 53.41588 -43.49795 33147 ft 491 kts 71°
2026-05-08 19:10 53.43578 -43.38943 33153 ft 490 kts 71°
2026-05-08 19:10 53.45562 -43.28075 33160 ft 489 kts 72°
2026-05-08 19:11 53.47537 -43.17185 33167 ft 488 kts 72°
2026-05-08 19:11 53.49497 -43.06315 33173 ft 488 kts 72°
2026-05-08 19:12 53.51439 -42.95468 33181 ft 489 kts 71°
2026-05-08 19:12 53.53388 -42.84525 33185 ft 488 kts 71°
2026-05-08 19:13 53.55314 -42.73649 33183 ft 488 kts 71°
2026-05-08 19:13 53.57230 -42.62770 33191 ft 487 kts 71°
2026-05-08 19:14 53.59121 -42.51954 33194 ft 486 kts 71°
2026-05-08 19:14 53.61018 -42.41044 33200 ft 486 kts 71°
2026-05-08 19:15 53.62891 -42.30210 33205 ft 485 kts 72°
2026-05-08 19:15 53.64764 -42.19310 33214 ft 484 kts 72°
2026-05-08 19:16 53.66609 -42.08488 33220 ft 483 kts 71°
2026-05-08 19:16 53.68451 -41.97625 33228 ft 482 kts 71°
2026-05-08 19:17 53.70280 -41.86782 33239 ft 482 kts 71°
2026-05-08 19:17 53.72086 -41.76004 33241 ft 483 kts 71°
2026-05-08 19:18 53.73895 -41.65139 33248 ft 482 kts 71°
2026-05-08 19:18 53.75695 -41.54266 33247 ft 481 kts 71°
2026-05-08 19:19 53.77480 -41.43400 33255 ft 481 kts 71°
2026-05-08 19:19 53.79246 -41.32594 33258 ft 480 kts 72°
2026-05-08 19:20 53.81017 -41.21685 33261 ft 480 kts 72°
2026-05-08 19:20 53.82769 -41.10819 33269 ft 480 kts 71°
2026-05-08 19:21 53.84504 -40.99985 33276 ft 479 kts 71°
2026-05-08 19:21 53.86234 -40.89130 33271 ft 479 kts 71°
2026-05-08 19:22 53.87947 -40.78288 33277 ft 478 kts 71°
2026-05-08 19:22 53.89647 -40.67478 33283 ft 478 kts 71°
2026-05-08 19:23 53.91333 -40.56665 33293 ft 476 kts 71°
2026-05-08 19:23 53.93015 -40.45821 33299 ft 476 kts 71°
2026-05-08 19:24 53.94678 -40.35031 33306 ft 475 kts 71°
2026-05-08 19:24 53.96332 -40.24222 33315 ft 475 kts 71°
2026-05-08 19:25 53.97972 -40.13428 33317 ft 474 kts 71°
2026-05-08 19:25 53.99597 -40.02645 33323 ft 473 kts 71°
2026-05-08 19:26 54.01184 -39.91858 33330 ft 472 kts 71°
2026-05-08 19:26 54.02726 -39.81077 33337 ft 472 kts 71°
2026-05-08 19:27 54.04261 -39.70275 33333 ft 471 kts 71°
2026-05-08 19:27 54.05791 -39.59446 33336 ft 472 kts 71°
2026-05-08 19:28 54.07305 -39.48662 33343 ft 471 kts 71°
2026-05-08 19:28 54.08801 -39.37900 33351 ft 469 kts 71°
2026-05-08 19:29 54.10298 -39.27082 33354 ft 471 kts 72°
2026-05-08 19:29 54.11782 -39.16270 33363 ft 470 kts 71°
2026-05-08 19:30 54.13267 -39.05394 33367 ft 472 kts 71°
2026-05-08 19:30 54.14730 -38.94577 33369 ft 470 kts 71°
2026-05-08 19:31 54.16190 -38.83723 33379 ft 470 kts 71°
2026-05-08 19:31 54.17621 -38.72975 33384 ft 468 kts 71°
2026-05-08 19:32 54.19053 -38.62164 33386 ft 468 kts 71°
2026-05-08 19:32 54.20471 -38.51380 33402 ft 467 kts 71°
2026-05-08 19:33 54.21876 -38.40600 33410 ft 466 kts 71°
2026-05-08 19:33 54.23272 -38.29824 33406 ft 467 kts 72°
2026-05-08 19:34 54.24663 -38.18996 33418 ft 467 kts 72°
2026-05-08 19:34 54.26036 -38.08230 33430 ft 467 kts 71°
2026-05-08 19:35 54.27396 -37.97465 33419 ft 465 kts 71°
2026-05-08 19:35 54.28757 -37.86627 33426 ft 467 kts 71°
2026-05-08 19:36 54.30103 -37.75831 33430 ft 467 kts 71°
2026-05-08 19:36 54.31439 -37.65004 33432 ft 466 kts 71°
2026-05-08 19:37 54.32766 -37.54165 33440 ft 465 kts 71°
2026-05-08 19:37 54.34084 -37.43331 33435 ft 465 kts 71°
2026-05-08 19:38 54.35383 -37.32565 33436 ft 464 kts 72°
2026-05-08 19:38 54.36683 -37.21717 33438 ft 466 kts 71°
2026-05-08 19:39 54.37967 -37.10897 33446 ft 465 kts 71°
2026-05-08 19:39 54.39238 -37.00105 33452 ft 465 kts 71°
2026-05-08 19:40 54.40503 -36.89251 33454 ft 465 kts 71°
2026-05-08 19:40 54.41758 -36.78436 33459 ft 465 kts 71°
2026-05-08 19:41 54.43008 -36.67567 33462 ft 465 kts 71°
2026-05-08 19:41 54.44234 -36.56789 33460 ft 462 kts 71°
2026-05-08 19:42 54.45459 -36.45958 33469 ft 463 kts 71°
2026-05-08 19:42 54.46669 -36.35144 33465 ft 461 kts 71°
2026-05-08 19:43 54.47872 -36.24314 33465 ft 464 kts 71°
2026-05-08 19:43 54.49068 -36.13451 33467 ft 462 kts 71°
2026-05-08 19:44 54.50248 -36.02644 33469 ft 461 kts 71°
2026-05-08 19:44 54.51409 -35.91885 33477 ft 461 kts 71°
2026-05-08 19:45 54.52568 -35.81074 33482 ft 459 kts 71°
2026-05-08 19:45 54.53713 -35.70316 33472 ft 461 kts 71°
2026-05-08 19:46 54.54855 -35.59466 33483 ft 459 kts 71°
2026-05-08 19:46 54.56534 -35.43347 33488 ft 459 kts 71°
2026-05-08 19:47 54.57645 -35.32557 33490 ft 459 kts 72°
2026-05-08 19:47 54.58746 -35.21768 33502 ft 459 kts 72°
2026-05-08 19:48 54.59835 -35.10983 33504 ft 458 kts 71°
2026-05-08 19:48 54.60912 -35.00225 33504 ft 458 kts 72°
2026-05-08 19:49 54.61986 -34.89415 33502 ft 457 kts 71°
2026-05-08 19:49 54.63043 -34.78628 33507 ft 458 kts 71°
2026-05-08 19:50 54.64095 -34.67822 33510 ft 457 kts 71°
2026-05-08 19:50 54.65129 -34.57063 33510 ft 455 kts 71°
2026-05-08 19:51 54.66164 -34.46256 33513 ft 458 kts 71°
2026-05-08 19:51 54.67175 -34.35524 33515 ft 455 kts 71°
2026-05-08 19:52 54.68188 -34.24706 33521 ft 456 kts 72°
2026-05-08 19:52 54.69176 -34.14027 33523 ft 454 kts 71°
2026-05-08 19:53 54.70168 -34.03216 33528 ft 456 kts 71°
2026-05-08 19:53 54.71148 -33.92437 33532 ft 456 kts 71°
2026-05-08 19:54 54.72114 -33.81669 33533 ft 454 kts 71°
2026-05-08 19:54 54.73066 -33.70928 33533 ft 453 kts 71°
2026-05-08 19:55 54.74008 -33.60243 33536 ft 452 kts 71°
2026-05-08 19:55 54.74943 -33.49491 33533 ft 451 kts 71°
2026-05-08 19:56 54.75861 -33.38842 33536 ft 450 kts 71°
2026-05-08 19:56 54.76772 -33.28133 33533 ft 451 kts 72°
2026-05-08 19:57 54.77675 -33.17447 33532 ft 450 kts 72°
2026-05-08 19:57 54.78560 -33.06823 33531 ft 448 kts 71°
2026-05-08 19:58 54.79444 -32.96107 33531 ft 448 kts 72°
2026-05-08 19:58 54.80306 -32.85514 33539 ft 449 kts 71°
2026-05-08 19:59 54.81166 -32.74851 33541 ft 447 kts 71°
2026-05-08 19:59 54.82016 -32.64197 33545 ft 447 kts 71°
2026-05-08 20:00 54.82852 -32.53565 33544 ft 447 kts 71°
2026-05-08 20:00 54.83685 -32.42879 33537 ft 448 kts 71°
2026-05-08 20:01 54.84504 -32.32234 33534 ft 446 kts 72°
2026-05-08 20:01 54.85315 -32.21606 33534 ft 446 kts 72°
2026-05-08 20:02 54.86112 -32.10991 33535 ft 445 kts 72°
2026-05-08 20:02 54.86897 -32.00437 33534 ft 443 kts 72°
2026-05-08 20:03 54.87671 -31.89885 33541 ft 442 kts 71°
2026-05-08 20:03 54.88439 -31.79296 33539 ft 443 kts 72°
2026-05-08 20:04 54.89197 -31.68750 33535 ft 445 kts 72°
2026-05-08 20:04 54.89947 -31.58116 33549 ft 442 kts 72°
2026-05-08 20:05 54.90682 -31.47597 33536 ft 441 kts 72°
2026-05-08 20:05 54.91410 -31.37041 33537 ft 441 kts 72°
2026-05-08 20:06 54.92130 -31.26470 33535 ft 443 kts 73°
2026-05-08 20:06 54.92840 -31.15885 33543 ft 442 kts 73°
2026-05-08 20:07 54.93538 -31.05336 33542 ft 441 kts 73°
2026-05-08 20:07 54.94232 -30.94742 33541 ft 442 kts 73°
2026-05-08 20:08 54.94910 -30.84204 33534 ft 442 kts 73°
2026-05-08 20:08 54.95580 -30.73628 33531 ft 441 kts 73°
2026-05-08 20:09 54.96243 -30.63068 33534 ft 441 kts 73°
2026-05-08 20:09 54.96895 -30.52522 33531 ft 441 kts 73°
2026-05-08 20:10 54.97539 -30.41961 33530 ft 441 kts 73°
2026-05-08 20:10 54.98172 -30.31402 33532 ft 442 kts 74°
2026-05-08 20:11 54.98797 -30.20840 33535 ft 441 kts 74°
2026-05-08 20:11 54.99412 -30.10231 33532 ft 441 kts 74°
2026-05-08 20:12 55.00021 -29.99598 33536 ft 442 kts 75°
2026-05-08 20:12 55.00481 -29.88991 33537 ft 442 kts 76°
2026-05-08 20:13 55.00887 -29.78370 33539 ft 442 kts 76°
2026-05-08 20:13 55.01292 -29.67723 33540 ft 442 kts 75°
2026-05-08 20:14 55.01693 -29.57109 33540 ft 440 kts 75°
2026-05-08 20:14 55.02087 -29.46465 33545 ft 440 kts 75°
2026-05-08 20:15 55.02471 -29.35896 33550 ft 441 kts 75°
2026-05-08 20:15 55.02846 -29.25247 33542 ft 442 kts 76°
2026-05-08 20:16 55.03213 -29.14600 33544 ft 441 kts 76°
2026-05-08 20:16 55.03572 -29.03945 33539 ft 441 kts 76°
2026-05-08 20:17 55.03919 -28.93360 33534 ft 441 kts 76°
2026-05-08 20:17 55.04256 -28.82734 33531 ft 440 kts 76°
2026-05-08 20:18 55.04585 -28.72085 33530 ft 438 kts 76°
2026-05-08 20:18 55.04904 -28.61513 33531 ft 440 kts 76°
2026-05-08 20:19 55.05215 -28.50920 33534 ft 441 kts 76°
2026-05-08 20:19 55.05514 -28.40326 33533 ft 440 kts 76°
2026-05-08 20:20 55.05804 -28.29740 33534 ft 438 kts 77°
2026-05-08 20:20 55.06087 -28.19158 33535 ft 438 kts 77°
2026-05-08 20:21 55.06359 -28.08606 33533 ft 437 kts 77°
2026-05-08 20:21 55.06619 -27.98098 33538 ft 438 kts 77°
2026-05-08 20:22 55.06874 -27.87531 33543 ft 437 kts 77°
2026-05-08 20:22 55.07077 -27.78732 33535 ft 437 kts 77°
2026-05-08 20:23 55.07357 -27.66400 33534 ft 437 kts 77°
2026-05-08 20:23 55.07581 -27.55839 33522 ft 438 kts 77°
2026-05-08 20:24 55.07796 -27.45281 33515 ft 436 kts 77°
2026-05-08 20:24 55.08005 -27.34713 33510 ft 436 kts 78°
2026-05-08 20:25 55.08203 -27.24216 33513 ft 439 kts 78°
2026-05-08 20:25 55.08395 -27.13606 33522 ft 439 kts 78°
2026-05-08 20:26 55.08574 -27.02964 33519 ft 439 kts 78°
2026-05-08 20:26 55.08746 -26.92425 33523 ft 438 kts 78°
2026-05-08 20:27 55.08910 -26.81820 33513 ft 439 kts 78°
2026-05-08 20:27 55.09061 -26.71213 33512 ft 437 kts 78°
2026-05-08 20:28 55.09205 -26.60608 33512 ft 438 kts 77°
2026-05-08 20:28 55.09341 -26.49998 33512 ft 438 kts 78°
2026-05-08 20:29 55.09466 -26.39447 33512 ft 438 kts 78°
2026-05-08 20:29 55.09584 -26.28827 33517 ft 439 kts 78°
2026-05-08 20:30 55.09690 -26.18204 33517 ft 439 kts 78°
2026-05-08 20:30 55.09788 -26.07621 33523 ft 439 kts 78°
2026-05-08 20:31 55.09877 -25.96992 33511 ft 438 kts 78°
2026-05-08 20:31 55.09958 -25.86308 33500 ft 440 kts 78°
2026-05-08 20:32 55.10029 -25.75656 33500 ft 439 kts 78°
2026-05-08 20:32 55.10088 -25.65061 33488 ft 439 kts 78°
2026-05-08 20:33 55.10139 -25.54440 33487 ft 438 kts 78°
2026-05-08 20:33 55.10182 -25.43862 33488 ft 437 kts 78°
2026-05-08 20:34 55.10215 -25.33339 33489 ft 437 kts 79°
2026-05-08 20:35 55.10249 -25.17497 33492 ft 436 kts 79°
2026-05-08 20:35 55.10260 -25.06986 33494 ft 435 kts 79°
2026-05-08 20:36 55.10260 -24.96429 33489 ft 434 kts 79°
2026-05-08 20:36 55.10253 -24.85967 33489 ft 434 kts 79°
2026-05-08 20:37 55.10239 -24.75491 33487 ft 435 kts 79°
2026-05-08 20:37 55.10212 -24.64959 33484 ft 433 kts 79°
2026-05-08 20:38 55.10178 -24.54494 33481 ft 434 kts 79°
2026-05-08 20:38 55.10134 -24.43991 33478 ft 433 kts 79°
2026-05-08 20:39 55.10082 -24.33536 33485 ft 433 kts 79°
2026-05-08 20:39 55.10020 -24.23083 33488 ft 433 kts 79°
2026-05-08 20:40 55.09951 -24.12665 33478 ft 433 kts 79°
2026-05-08 20:40 55.09871 -24.02163 33488 ft 432 kts 79°
2026-05-08 20:41 55.09784 -23.91761 33486 ft 433 kts 80°
2026-05-08 20:41 55.09687 -23.81304 33469 ft 431 kts 80°
2026-05-08 20:42 55.09579 -23.70827 33463 ft 430 kts 79°
2026-05-08 20:42 55.09464 -23.60464 33462 ft 431 kts 80°
2026-05-08 20:43 55.09343 -23.50107 33462 ft 429 kts 79°
2026-05-08 20:43 55.09211 -23.39694 33458 ft 431 kts 80°
2026-05-08 20:44 55.09069 -23.29320 33464 ft 430 kts 81°
2026-05-08 20:44 55.08921 -23.18914 33462 ft 430 kts 81°
2026-05-08 20:45 55.08762 -23.08481 33465 ft 430 kts 81°
2026-05-08 20:45 55.08595 -22.98147 33460 ft 431 kts 81°
2026-05-08 20:46 55.08418 -22.87762 33471 ft 429 kts 81°
2026-05-08 20:46 55.08234 -22.77341 33469 ft 430 kts 81°
2026-05-08 20:47 55.08040 -22.66957 33469 ft 431 kts 81°
2026-05-08 20:47 55.07838 -22.56597 33463 ft 430 kts 81°
2026-05-08 20:48 55.07623 -22.46172 33460 ft 430 kts 81°
2026-05-08 20:48 55.07406 -22.35812 33462 ft 430 kts 81°
2026-05-08 20:49 55.07175 -22.25357 33456 ft 433 kts 82°
2026-05-08 20:49 55.06936 -22.14938 33455 ft 433 kts 82°
2026-05-08 20:50 55.06685 -22.04475 33449 ft 432 kts 82°
2026-05-08 20:50 55.06431 -21.94104 33429 ft 430 kts 83°
2026-05-08 20:51 55.06165 -21.83698 33430 ft 429 kts 83°
2026-05-08 20:51 55.05891 -21.73325 33437 ft 431 kts 83°
2026-05-08 20:52 55.05609 -21.62894 33434 ft 432 kts 83°
2026-05-08 20:52 55.05317 -21.52506 33434 ft 432 kts 83°
2026-05-08 20:53 55.05015 -21.42079 33422 ft 432 kts 83°
2026-05-08 20:53 55.04704 -21.31670 33424 ft 432 kts 84°
2026-05-08 20:54 55.04382 -21.21210 33431 ft 434 kts 84°
2026-05-08 20:54 55.04057 -21.10786 33422 ft 435 kts 85°
2026-05-08 20:55 55.03716 -21.00294 33428 ft 436 kts 85°
2026-05-08 20:55 55.03366 -20.89783 33433 ft 437 kts 85°
2026-05-08 20:56 55.03006 -20.79288 33440 ft 435 kts 85°
2026-05-08 20:56 55.02639 -20.68770 33440 ft 435 kts 85°
2026-05-08 20:57 55.02264 -20.58307 33441 ft 436 kts 85°
2026-05-08 20:57 55.01876 -20.47772 33445 ft 436 kts 85°
2026-05-08 20:58 55.01482 -20.37298 33443 ft 437 kts 85°
2026-05-08 20:58 55.01078 -20.26809 33436 ft 437 kts 86°
2026-05-08 20:59 55.00660 -20.16275 33435 ft 435 kts 86°
2026-05-08 20:59 55.00162 -20.05844 33439 ft 438 kts 90°
2026-05-08 21:00 54.99074 -19.95338 33428 ft 444 kts 96°
2026-05-08 21:00 54.97368 -19.84988 33426 ft 449 kts 99°
2026-05-08 21:01 54.95531 -19.74642 33422 ft 448 kts 99°
2026-05-08 21:01 54.93698 -19.64363 33418 ft 448 kts 100°
2026-05-08 21:02 54.91863 -19.54121 33414 ft 446 kts 99°
2026-05-08 21:02 54.90010 -19.43805 33413 ft 447 kts 100°
2026-05-08 21:03 54.88161 -19.33585 33423 ft 448 kts 101°
2026-05-08 21:03 54.86294 -19.23323 33427 ft 447 kts 101°
2026-05-08 21:04 54.84421 -19.13083 33423 ft 448 kts 101°
2026-05-08 21:04 54.82541 -19.02854 33425 ft 447 kts 101°
2026-05-08 21:05 54.80640 -18.92562 33423 ft 448 kts 101°
2026-05-08 21:05 54.78746 -18.82374 33409 ft 448 kts 102°
2026-05-08 21:06 54.76835 -18.72149 33401 ft 449 kts 102°
2026-05-08 21:06 54.74910 -18.61904 33402 ft 449 kts 102°
2026-05-08 21:07 54.72970 -18.51645 33407 ft 449 kts 102°
2026-05-08 21:07 54.71032 -18.41438 33389 ft 450 kts 103°
2026-05-08 21:08 54.69080 -18.31207 33395 ft 452 kts 104°
2026-05-08 21:08 54.67100 -18.20910 33388 ft 453 kts 104°
2026-05-08 21:09 54.65111 -18.10609 33387 ft 454 kts 104°
2026-05-08 21:09 54.63112 -18.00307 33385 ft 454 kts 104°
2026-05-08 21:10 54.61115 -17.90075 33386 ft 455 kts 104°
2026-05-08 21:10 54.59083 -17.79716 33386 ft 456 kts 105°
2026-05-08 21:11 54.57046 -17.69385 33382 ft 458 kts 105°
2026-05-08 21:11 54.54997 -17.59055 33380 ft 460 kts 105°
2026-05-08 21:12 54.52914 -17.48621 33382 ft 461 kts 105°
2026-05-08 21:12 54.50840 -17.38253 33379 ft 463 kts 106°
2026-05-08 21:13 54.48732 -17.27778 33376 ft 465 kts 107°
2026-05-08 21:13 54.46609 -17.17307 33375 ft 466 kts 108°
2026-05-08 21:14 54.44476 -17.06835 33375 ft 467 kts 108°
2026-05-08 21:14 54.42330 -16.96355 33377 ft 468 kts 108°
2026-05-08 21:15 54.40182 -16.85916 33377 ft 468 kts 108°
2026-05-08 21:15 54.38006 -16.75407 33386 ft 468 kts 108°
2026-05-08 21:16 54.35824 -16.64906 33383 ft 470 kts 109°
2026-05-08 21:16 54.33627 -16.54395 33377 ft 470 kts 109°
2026-05-08 21:17 54.31424 -16.43912 33373 ft 471 kts 109°
2026-05-08 21:17 54.29192 -16.33355 33367 ft 473 kts 110°
2026-05-08 21:18 54.26973 -16.22902 33361 ft 472 kts 110°
2026-05-08 21:18 54.24720 -16.12341 33367 ft 472 kts 111°
2026-05-08 21:19 54.22475 -16.01866 33357 ft 473 kts 111°
2026-05-08 21:19 54.20203 -15.91342 33366 ft 472 kts 112°
2026-05-08 21:20 54.17936 -15.80888 33358 ft 473 kts 112°
2026-05-08 21:20 54.15650 -15.70392 33360 ft 473 kts 112°
2026-05-08 21:21 54.13360 -15.59934 33364 ft 473 kts 112°
2026-05-08 21:21 54.11064 -15.49508 33358 ft 473 kts 112°
2026-05-08 21:22 54.08744 -15.39019 33356 ft 473 kts 113°
2026-05-08 21:22 54.06424 -15.28585 33353 ft 473 kts 114°
2026-05-08 21:23 54.04101 -15.18199 33332 ft 474 kts 114°
2026-05-08 21:23 54.01957 -15.07610 33345 ft 476 kts 109°
2026-05-08 21:24 54.00559 -14.96628 33334 ft 480 kts 101°
2026-05-08 21:24 53.99987 -14.85309 33320 ft 484 kts 94°
2026-05-08 21:25 54.00008 -14.73947 33308 ft 484 kts 92°
2026-05-08 21:25 54.00062 -14.62537 33311 ft 484 kts 92°
2026-05-08 21:26 54.00087 -14.51108 33310 ft 485 kts 92°
2026-05-08 21:26 54.00088 -14.39691 33310 ft 485 kts 92°
2026-05-08 21:27 54.00079 -14.28260 33308 ft 485 kts 93°
2026-05-08 21:27 54.00058 -14.16901 33307 ft 486 kts 93°
2026-05-08 21:28 54.00023 -14.05401 33308 ft 486 kts 94°
2026-05-08 21:28 53.99941 -13.93985 33308 ft 486 kts 95°
2026-05-08 21:29 53.99739 -13.82543 33302 ft 486 kts 95°
2026-05-08 21:29 53.99523 -13.71076 33309 ft 487 kts 95°
2026-05-08 21:30 53.99304 -13.59628 33302 ft 488 kts 95°
2026-05-08 21:30 53.99077 -13.48197 33296 ft 487 kts 96°
2026-05-08 21:31 53.98839 -13.36745 33297 ft 488 kts 96°
2026-05-08 21:31 53.98591 -13.25211 33294 ft 488 kts 97°
2026-05-08 21:32 53.98331 -13.13797 33292 ft 488 kts 97°
2026-05-08 21:32 53.98061 -13.02327 33289 ft 488 kts 97°
2026-05-08 21:33 53.97780 -12.90894 33284 ft 488 kts 97°
2026-05-08 21:33 53.97487 -12.79403 33285 ft 488 kts 97°
2026-05-08 21:34 53.97183 -12.67893 33283 ft 489 kts 97°
2026-05-08 21:34 53.96871 -12.56468 33279 ft 489 kts 97°
2026-05-08 21:35 53.96545 -12.44948 33280 ft 489 kts 97°
2026-05-08 21:35 53.96206 -12.33457 33275 ft 490 kts 98°
2026-05-08 21:36 53.95860 -12.21971 33272 ft 489 kts 98°
2026-05-08 21:36 53.95502 -12.10430 33273 ft 489 kts 98°
2026-05-08 21:37 53.95133 -11.98995 33266 ft 489 kts 98°
2026-05-08 21:37 53.94752 -11.87538 33260 ft 490 kts 98°
2026-05-08 21:38 53.94356 -11.75964 33256 ft 490 kts 98°
2026-05-08 21:38 53.93953 -11.64451 33257 ft 491 kts 98°
2026-05-08 21:39 53.93541 -11.53030 33253 ft 489 kts 98°
2026-05-08 21:39 53.93118 -11.41534 33251 ft 489 kts 98°
2026-05-08 21:40 53.92674 -11.30075 33246 ft 488 kts 99°
2026-05-08 21:40 53.92225 -11.18646 33245 ft 487 kts 100°
2026-05-08 21:41 53.91535 -11.01484 33235 ft 487 kts 100°
2026-05-08 21:41 53.91065 -10.90087 33235 ft 488 kts 99°
2026-05-08 21:42 53.90581 -10.78628 33235 ft 487 kts 100°
2026-05-08 21:42 53.90089 -10.67250 33230 ft 488 kts 100°
2026-05-08 21:43 53.89584 -10.55804 33232 ft 488 kts 99°
2026-05-08 21:43 53.89099 -10.44323 33230 ft 489 kts 98°
2026-05-08 21:44 53.88849 -10.32871 33231 ft 489 kts 97°
2026-05-08 21:44 53.88535 -10.21499 33221 ft 486 kts 99°
2026-05-08 21:45 53.88117 -10.10027 33221 ft 486 kts 100°
2026-05-08 21:45 53.86832 -9.99037 33218 ft 477 kts 111°
2026-05-08 21:46 53.85152 -9.88187 33215 ft 477 kts 111°
2026-05-08 21:46 53.83501 -9.77388 33212 ft 477 kts 111°
2026-05-08 21:47 53.81860 -9.66538 33208 ft 479 kts 110°
2026-05-08 21:47 53.80214 -9.55644 33205 ft 479 kts 110°
2026-05-08 21:48 53.78567 -9.44772 33203 ft 478 kts 110°
2026-05-08 21:48 53.76910 -9.33917 33208 ft 478 kts 111°
2026-05-08 21:49 53.75253 -9.23136 33212 ft 477 kts 111°
2026-05-08 21:49 53.73588 -9.12364 33209 ft 475 kts 111°
2026-05-08 21:50 53.71914 -9.01606 33207 ft 475 kts 111°
2026-05-08 21:50 53.70238 -8.90884 32525 ft 476 kts 111°
2026-05-08 21:51 53.69392 -8.85501 31498 ft 483 kts 110°
2026-05-08 21:51 53.68523 -8.79997 30420 ft 489 kts 109°
2026-05-08 21:51 53.67655 -8.74504 29529 ft 492 kts 109°
2026-05-08 21:51 53.66774 -8.68942 28736 ft 492 kts 109°
2026-05-08 21:52 53.65890 -8.63375 27949 ft 491 kts 109°
2026-05-08 21:52 53.65017 -8.57902 27155 ft 491 kts 109°
2026-05-08 21:52 53.64129 -8.52361 26553 ft 486 kts 108°
2026-05-08 21:52 53.63255 -8.46912 26010 ft 480 kts 108°
2026-05-08 21:53 53.62397 -8.41592 25526 ft 473 kts 108°
2026-05-08 21:53 53.61544 -8.36322 25009 ft 468 kts 108°
2026-05-08 21:53 53.60689 -8.31062 24509 ft 462 kts 109°
2026-05-08 21:53 53.59842 -8.25875 23981 ft 458 kts 109°
2026-05-08 21:54 53.59005 -8.20764 23470 ft 453 kts 109°
2026-05-08 21:54 53.58174 -8.15713 23014 ft 448 kts 109°
2026-05-08 21:54 53.57352 -8.10735 22521 ft 443 kts 109°
2026-05-08 21:54 53.56531 -8.05766 22023 ft 439 kts 108°
2026-05-08 21:55 53.55716 -8.00858 21546 ft 434 kts 108°
2026-05-08 21:55 53.54914 -7.96026 21065 ft 430 kts 108°
2026-05-08 21:55 53.54111 -7.91207 20547 ft 427 kts 108°
2026-05-08 21:56 53.52533 -7.81772 19585 ft 419 kts 108°
2026-05-08 21:56 53.51740 -7.77052 19115 ft 415 kts 108°
2026-05-08 21:56 53.50964 -7.72446 18657 ft 411 kts 107°
2026-05-08 21:56 53.50191 -7.67869 18220 ft 406 kts 107°
2026-05-08 21:57 53.49429 -7.63364 17754 ft 403 kts 107°
2026-05-08 21:57 53.48667 -7.58878 17296 ft 399 kts 107°
2026-05-08 21:57 53.47915 -7.54460 16836 ft 395 kts 107°
2026-05-08 21:57 53.47163 -7.50056 16391 ft 392 kts 107°
2026-05-08 21:58 53.46414 -7.45681 15937 ft 388 kts 107°
2026-05-08 21:58 53.45682 -7.41412 15501 ft 385 kts 107°
2026-05-08 21:58 53.44942 -7.37108 15046 ft 382 kts 107°
2026-05-08 21:58 53.44216 -7.32890 14599 ft 378 kts 108°
2026-05-08 21:59 53.43490 -7.28686 14156 ft 375 kts 108°
2026-05-08 21:59 53.42764 -7.24496 13703 ft 372 kts 107°
2026-05-08 21:59 53.42048 -7.20366 13252 ft 369 kts 107°
2026-05-08 21:59 53.41339 -7.16284 12806 ft 366 kts 107°
2026-05-08 22:00 53.40629 -7.12212 12360 ft 363 kts 107°
2026-05-08 22:00 53.39923 -7.08171 11883 ft 361 kts 107°
2026-05-08 22:00 53.39227 -7.04195 11419 ft 358 kts 107°
2026-05-08 22:00 53.38533 -7.00240 10964 ft 355 kts 107°
2026-05-08 22:01 53.37845 -6.96330 10631 ft 347 kts 107°
2026-05-08 22:01 53.37172 -6.92508 10369 ft 338 kts 107°
2026-05-08 22:01 53.36523 -6.88823 10249 ft 323 kts 107°
2026-05-08 22:01 53.35902 -6.85313 10174 ft 309 kts 107°
2026-05-08 22:02 53.35300 -6.81911 10094 ft 296 kts 107°
2026-05-08 22:02 53.34731 -6.78713 10009 ft 282 kts 107°
2026-05-08 22:02 53.34176 -6.75610 9768 ft 277 kts 107°
2026-05-08 22:02 53.33629 -6.72553 9406 ft 276 kts 107°
2026-05-08 22:03 53.33078 -6.69482 9066 ft 274 kts 107°
2026-05-08 22:03 53.32539 -6.66469 8724 ft 273 kts 107°
2026-05-08 22:03 53.31996 -6.63440 8389 ft 271 kts 106°
2026-05-08 22:03 53.31458 -6.60447 8062 ft 269 kts 106°
2026-05-08 22:04 53.30928 -6.57496 7739 ft 266 kts 106°
2026-05-08 22:04 53.30400 -6.54569 7420 ft 264 kts 106°
2026-05-08 22:04 53.29871 -6.51636 7097 ft 262 kts 105°
2026-05-08 22:04 53.29343 -6.48715 6777 ft 260 kts 105°
2026-05-08 22:05 53.28829 -6.45874 6463 ft 258 kts 105°
2026-05-08 22:05 53.28310 -6.43010 6147 ft 256 kts 105°
2026-05-08 22:05 53.27793 -6.40169 5834 ft 255 kts 105°
2026-05-08 22:05 53.27285 -6.37376 5525 ft 253 kts 104°
2026-05-08 22:06 53.26771 -6.34558 5215 ft 251 kts 105°
2026-05-08 22:06 53.26267 -6.31793 4908 ft 249 kts 105°
2026-05-08 22:06 53.25767 -6.29052 4602 ft 247 kts 104°
2026-05-08 22:06 53.25273 -6.26349 4301 ft 244 kts 104°
2026-05-08 22:07 53.24777 -6.23643 4001 ft 241 kts 104°
2026-05-08 22:07 53.24292 -6.20999 3720 ft 239 kts 104°
2026-05-08 22:07 53.23820 -6.18426 3668 ft 225 kts 102°
2026-05-08 22:07 53.23714 -6.15953 3556 ft 208 kts 69°
2026-05-08 22:08 53.24565 -6.14161 3490 ft 196 kts 29°
2026-05-08 22:08 53.25844 -6.13826 3372 ft 185 kts 358°
2026-05-08 22:08 53.27040 -6.14289 3207 ft 167 kts 346°
2026-05-08 22:08 53.28069 -6.14923 3139 ft 152 kts 344°
2026-05-08 22:09 53.29044 -6.15585 2998 ft 147 kts 343°
2026-05-08 22:09 53.29956 -6.16233 2784 ft 142 kts 343°
2026-05-08 22:09 53.30859 -6.16885 2592 ft 146 kts 342°
2026-05-08 22:09 53.31872 -6.17645 2871 ft 163 kts 341°
2026-05-08 22:10 53.32952 -6.18421 3172 ft 175 kts 342°
2026-05-08 22:10 53.34095 -6.19222 3621 ft 185 kts 341°
2026-05-08 22:10 53.35329 -6.20061 3948 ft 203 kts 342°
2026-05-08 22:10 53.36697 -6.20969 4295 ft 222 kts 342°
2026-05-08 22:11 53.38191 -6.21933 4708 ft 239 kts 342°
2026-05-08 22:11 53.39757 -6.22924 5494 ft 242 kts 341°
2026-05-08 22:11 53.41341 -6.23903 5939 ft 245 kts 342°
2026-05-08 22:11 53.42935 -6.24876 6006 ft 246 kts 342°
2026-05-08 22:12 53.44579 -6.25427 5983 ft 242 kts
2026-05-08 22:12 53.46082 -6.24322 6002 ft 240 kts 44°
2026-05-08 22:12 53.47006 -6.22012 6010 ft 240 kts 71°
2026-05-08 22:12 53.47386 -6.19277 6018 ft 241 kts 78°
2026-05-08 22:13 53.47713 -6.16542 6013 ft 241 kts 77°
2026-05-08 22:13 53.48065 -6.13813 6017 ft 241 kts 76°
2026-05-08 22:13 53.48443 -6.11069 5907 ft 242 kts 76°
2026-05-08 22:13 53.48830 -6.08340 5660 ft 240 kts 76°
2026-05-08 22:14 53.49223 -6.05616 5385 ft 238 kts 75°
2026-05-08 22:14 53.49608 -6.02961 5098 ft 236 kts 75°
2026-05-08 22:14 53.49996 -6.00290 4806 ft 232 kts 75°
2026-05-08 22:14 53.50304 -5.97704 4722 ft 221 kts 87°
2026-05-08 22:15 53.49896 -5.95295 4648 ft 222 kts 122°
2026-05-08 22:15 53.48725 -5.93612 4538 ft 222 kts 152°
2026-05-08 22:15 53.47219 -5.93223 4191 ft 223 kts 184°
2026-05-08 22:15 53.45728 -5.93685 3892 ft 217 kts 187°
2026-05-08 22:16 53.44253 -5.93971 3610 ft 210 kts 183°
2026-05-08 22:16 53.42810 -5.94181 3349 ft 203 kts 182°
2026-05-08 22:16 53.41481 -5.94757 3052 ft 200 kts 212°
2026-05-08 22:16 53.40638 -5.96469 2856 ft 181 kts 256°
2026-05-08 22:17 53.40483 -5.98440 2868 ft 170 kts 276°
2026-05-08 22:17 53.40593 -6.00404 2879 ft 168 kts 284°
2026-05-08 22:17 53.40759 -6.02321 2829 ft 168 kts 283°
2026-05-08 22:17 53.40906 -6.04292 2660 ft 170 kts 282°
2026-05-08 22:18 53.41023 -6.06252 2430 ft 169 kts 281°
2026-05-08 22:18 53.41124 -6.08180 2242 ft 168 kts 281°
2026-05-08 22:18 53.41223 -6.10140 1996 ft 168 kts 281°
2026-05-08 22:18 53.41316 -6.12012 1758 ft 157 kts 282°
2026-05-08 22:19 53.41418 -6.13807 1534 ft 152 kts 284°
2026-05-08 22:19 53.41516 -6.15576 1340 ft 152 kts 282°
2026-05-08 22:19 53.41600 -6.17321 1141 ft 150 kts 280°
2026-05-08 22:19 53.41686 -6.19056 949 ft 151 kts 278°
2026-05-08 22:20 53.41792 -6.20791 755 ft 149 kts 278°
2026-05-08 22:20 53.41882 -6.22497 545 ft 147 kts 277°
2026-05-08 22:20 53.41975 -6.24203 315 ft 146 kts 276°
2026-05-08 22:20 53.42070 -6.25880 210 ft 132 kts 275°
2026-05-08 22:21 53.42130 -6.26950 224 ft 62 kts 275°
2026-05-08 22:21 53.42165 -6.27567 228 ft 34 kts 275°
2026-05-08 22:21 53.42228 -6.27914 232 ft 28 kts 300°
2026-05-08 22:21 53.42304 -6.28120 234 ft 13 kts 327°
2026-05-08 22:22 53.42365 -6.28058 234 ft 13 kts 93°
2026-05-08 22:22 53.42355 -6.27888 232 ft 15 kts 95°
2026-05-08 22:22 53.42346 -6.27697 229 ft 18 kts 95°
2026-05-08 22:22 53.42332 -6.27477 228 ft 19 kts 96°
2026-05-08 22:23 53.42318 -6.27212 226 ft 27 kts 95°
2026-05-08 22:23 53.42301 -6.26897 225 ft 26 kts 95°